User: anonymous   Login
Location: Unspecified
(0.0000°N, 0.0000°E)
Time: 05:24:48
(UTC+00:00)
Language:

XW-2C - Orbit

View from above orbital plane
View from above orbital plane
View from above satellite
View from above satellite

Ground track
Ground track

The orbit data is extracted from the following two-line orbital elements,

1 40906U 15049H   21137.88172744  .00001050  00000-0  56976-4 0  9996
2 40906  97.4857 140.6200 0012923 297.6573 146.5026 15.16692512312930
Epoch (UTC): 17 May 2021 21:09:41
Eccentricity: 0.0012923
inclination: 97.4857°
perigee height: 507 km
apogee height: 525 km
right ascension of ascending node: 140.6200°
argument of perigee: 297.6573°
revolutions per day: 15.16692512
mean anomaly at epoch: 146.5026°
orbit number at epoch: 31293

The dashed part of the orbit path shows where the satellite is in the earth's shadow,  

DLR